Location: Dehesa de la Cepeda
(40.6574°N, 4.3013°W)
Time: 19:49:44
(UTC+00:00)

ALOS 2 - Pass Details

Date: 05 July 2020
Orbit: 630 x 632 km, 97.9° (Epoch: 06 August)

Event Time Altitude Azimuth Distance (km) Brightness Sun altitude
Exits shadow 23:35:36 60° 48° (NE) 725 2.9 -25.8°
Drops below altitude 10° 23:39:36 10° 354° (N) 2,021 6.2 -25.9°
Sets 23:41:49 0° 351° (N) 2,933 7.4 -26.0°
